owner,sensor,date,latitude,longitude,mass_concentration_of_chlorophyll_in_sea_water,qcFlag 
SCCF RECON,ioos:station:SCCF:13:1,2011-02-01T00:00:00Z,26.5255,-82.0032,1.09,1111122 
SCCF RECON,ioos:station:SCCF:13:1,2011-02-01T01:00:00Z,26.5255,-82.0032,2.0,1111122 
SCCF RECON,ioos:station:SCCF:13:1,2011-02-01T02:00:00Z,26.5255,-82.0032,1.49,1111122 
SCCF RECON,ioos:station:SCCF:13:1,2011-02-01T03:00:00Z,26.5255,-82.0032,1.63,1111122 
SCCF RECON,ioos:station:SCCF:13:1,2011-02-01T04:00:00Z,26.5255,-82.0032,2.06,1111122 
SCCF RECON,ioos:station:SCCF:13:1,2011-02-01T05:00:00Z,26.5255,-82.0032,2.37,1111122 
SCCF RECON,ioos:station:SCCF:13:1,2011-02-01T06:00:00Z,26.5255,-82.0032,10.0,1111122 
SCCF RECON,ioos:station:SCCF:13:1,2011-02-01T07:00:00Z,26.5255,-82.0032,0.88,1111122 
SCCF RECON,ioos:station:SCCF:13:1,2011-02-01T08:00:00Z,26.5255,-82.0032,0.75,1111122 
SCCF RECON,ioos:station:SCCF:13:1,2011-02-01T09:00:00Z,26.5255,-82.0032,0.71,1111122 
SCCF RECON,ioos:station:SCCF:13:1,2011-02-01T10:00:00Z,26.5255,-82.0032,0.76,1111122 
SCCF RECON,ioos:station:SCCF:13:1,2011-02-01T11:00:00Z,26.5255,-82.0032,0.78,1111122 
SCCF RECON,ioos:station:SCCF:13:1,2011-02-01T12:00:00Z,26.5255,-82.0032,0.81,1111122 
SCCF RECON,ioos:station:SCCF:13:1,2011-02-01T13:00:00Z,26.5255,-82.0032,0.78,1111122 
SCCF RECON,ioos:station:SCCF:13:1,2011-02-01T14:00:00Z,26.5255,-82.0032,0.79,1111122 
SCCF RECON,ioos:station:SCCF:13:1,2011-02-01T15:00:00Z,26.5255,-82.0032,0.82,1111122 
SCCF RECON,ioos:station:SCCF:13:1,2011-02-01T16:00:00Z,26.5255,-82.0032,0.76,1111122 
SCCF RECON,ioos:station:SCCF:13:1,2011-02-01T17:00:00Z,26.5255,-82.0032,1.17,1111122 
SCCF RECON,ioos:station:SCCF:13:1,2011-02-01T18:00:00Z,26.5255,-82.0032,1.08,1111122 
SCCF RECON,ioos:station:SCCF:13:1,2011-02-01T19:00:00Z,26.5255,-82.0032,2.47,1111122 
SCCF RECON,ioos:station:SCCF:13:1,2011-02-01T20:00:00Z,26.5255,-82.0032,2.77,1111122 
SCCF RECON,ioos:station:SCCF:13:1,2011-02-01T21:00:00Z,26.5255,-82.0032,2.86,1111122 
SCCF RECON,ioos:station:SCCF:13:1,2011-02-01T22:00:00Z,26.5255,-82.0032,2.94,1111122 
SCCF RECON,ioos:station:SCCF:13:1,2011-02-01T23:00:00Z,26.5255,-82.0032,3.1,1111122 
SCCF RECON,ioos:station:SCCF:13:1,2011-02-02T00:00:00Z,26.5255,-82.0032,3.73,1111122 
SCCF RECON,ioos:station:SCCF:13:1,2011-02-02T01:00:00Z,26.5255,-82.0032,12.14,1111122 
SCCF RECON,ioos:station:SCCF:13:1,2011-02-02T02:00:00Z,26.5255,-82.0032,2.09,1111122 
SCCF RECON,ioos:station:SCCF:13:1,2011-02-02T03:00:00Z,26.5255,-82.0032,2.79,1111122 
SCCF RECON,ioos:station:SCCF:13:1,2011-02-02T04:00:00Z,26.5255,-82.0032,3.97,1111122 
SCCF RECON,ioos:station:SCCF:13:1,2011-02-02T05:00:00Z,26.5255,-82.0032,4.08,1111122 
SCCF RECON,ioos:station:SCCF:13:1,2011-02-02T06:00:00Z,26.5255,-82.0032,4.06,1111122 
SCCF RECON,ioos:station:SCCF:13:1,2011-02-02T07:00:00Z,26.5255,-82.0032,1.85,1111122 
SCCF RECON,ioos:station:SCCF:13:1,2011-02-02T08:00:00Z,26.5255,-82.0032,1.03,1111122 
SCCF RECON,ioos:station:SCCF:13:1,2011-02-02T09:00:00Z,26.5255,-82.0032,0.84,1111122 
SCCF RECON,ioos:station:SCCF:13:1,2011-02-02T10:00:00Z,26.5255,-82.0032,0.71,1111122 
SCCF RECON,ioos:station:SCCF:13:1,2011-02-02T11:00:00Z,26.5255,-82.0032,0.71,1111122 
SCCF RECON,ioos:station:SCCF:13:1,2011-02-02T12:00:00Z,26.5255,-82.0032,0.72,1111122 
SCCF RECON,ioos:station:SCCF:13:1,2011-02-02T13:00:00Z,26.5255,-82.0032,0.7,1111122 
SCCF RECON,ioos:station:SCCF:13:1,2011-02-02T14:00:00Z,26.5255,-82.0032,0.7,1111122 
SCCF RECON,ioos:station:SCCF:13:1,2011-02-02T15:00:00Z,26.5255,-82.0032,0.68,1111122 
SCCF RECON,ioos:station:SCCF:13:1,2011-02-02T16:00:00Z,26.5255,-82.0032,0.61,1111122 
SCCF RECON,ioos:station:SCCF:13:1,2011-02-02T17:00:00Z,26.5255,-82.0032,0.9,1111122 
SCCF RECON,ioos:station:SCCF:13:1,2011-02-02T18:00:00Z,26.5255,-82.0032,1.29,1111122 
SCCF RECON,ioos:station:SCCF:13:1,2011-02-02T19:00:00Z,26.5255,-82.0032,1.37,1111122 
SCCF RECON,ioos:station:SCCF:13:1,2011-02-02T20:00:00Z,26.5255,-82.0032,1.95,1111122 
SCCF RECON,ioos:station:SCCF:13:1,2011-02-02T21:00:00Z,26.5255,-82.0032,1.18,1111122 
SCCF RECON,ioos:station:SCCF:13:1,2011-02-02T22:00:00Z,26.5255,-82.0032,0.93,1111122 
SCCF RECON,ioos:station:SCCF:13:1,2011-02-02T23:00:00Z,26.5255,-82.0032,1.16,1111122 
SCCF RECON,ioos:station:SCCF:13:1,2011-02-03T00:00:00Z,26.5255,-82.0032,0.71,1111122 
SCCF RECON,ioos:station:SCCF:13:1,2011-02-03T01:00:00Z,26.5255,-82.0032,0.75,1111122 
SCCF RECON,ioos:station:SCCF:13:1,2011-02-03T02:00:00Z,26.5255,-82.0032,0.79,1111122 
SCCF RECON,ioos:station:SCCF:13:1,2011-02-03T03:00:00Z,26.5255,-82.0032,0.66,1111122 
SCCF RECON,ioos:station:SCCF:13:1,2011-02-03T04:00:00Z,26.5255,-82.0032,0.64,1111122 
SCCF RECON,ioos:station:SCCF:13:1,2011-02-03T05:00:00Z,26.5255,-82.0032,2.52,1111122 
SCCF RECON,ioos:station:SCCF:13:1,2011-02-03T06:00:00Z,26.5255,-82.0032,2.8,1111122 
SCCF RECON,ioos:station:SCCF:13:1,2011-02-03T07:00:00Z,26.5255,-82.0032,2.4,1111122 
SCCF RECON,ioos:station:SCCF:13:1,2011-02-03T08:00:00Z,26.5255,-82.0032,9.26,1111122 
SCCF RECON,ioos:station:SCCF:13:1,2011-02-03T09:00:00Z,26.5255,-82.0032,0.73,1111122 
SCCF RECON,ioos:station:SCCF:13:1,2011-02-03T10:00:00Z,26.5255,-82.0032,0.62,1111122 
SCCF RECON,ioos:station:SCCF:13:1,2011-02-03T11:00:00Z,26.5255,-82.0032,0.63,1111122 
SCCF RECON,ioos:station:SCCF:13:1,2011-02-03T12:00:00Z,26.5255,-82.0032,0.71,1111122 
SCCF RECON,ioos:station:SCCF:13:1,2011-02-03T13:00:00Z,26.5255,-82.0032,0.77,1111122 
SCCF RECON,ioos:station:SCCF:13:1,2011-02-03T14:00:00Z,26.5255,-82.0032,0.79,1111122 
SCCF RECON,ioos:station:SCCF:13:1,2011-02-03T15:00:00Z,26.5255,-82.0032,0.77,1111122 
SCCF RECON,ioos:station:SCCF:13:1,2011-02-03T16:00:00Z,26.5255,-82.0032,0.81,1111122 
SCCF RECON,ioos:station:SCCF:13:1,2011-02-03T17:00:00Z,26.5255,-82.0032,0.7,1111122 
SCCF RECON,ioos:station:SCCF:13:1,2011-02-03T18:00:00Z,26.5255,-82.0032,0.73,1111122 
SCCF RECON,ioos:station:SCCF:13:1,2011-02-03T19:00:00Z,26.5255,-82.0032,5.21,1111122 
SCCF RECON,ioos:station:SCCF:13:1,2011-02-03T20:00:00Z,26.5255,-82.0032,6.25,1111122 
SCCF RECON,ioos:station:SCCF:13:1,2011-02-03T21:00:00Z,26.5255,-82.0032,6.3,1111122 
SCCF RECON,ioos:station:SCCF:13:1,2011-02-03T22:00:00Z,26.5255,-82.0032,1.03,1111122 
SCCF RECON,ioos:station:SCCF:13:1,2011-02-03T23:00:00Z,26.5255,-82.0032,0.92,1111122 
SCCF RECON,ioos:station:SCCF:13:1,2011-02-04T00:00:00Z,26.5255,-82.0032,0.87,1111122 
SCCF RECON,ioos:station:SCCF:13:1,2011-02-04T01:00:00Z,26.5255,-82.0032,0.8,1111122 
SCCF RECON,ioos:station:SCCF:13:1,2011-02-04T02:00:00Z,26.5255,-82.0032,0.97,1111122 
SCCF RECON,ioos:station:SCCF:13:1,2011-02-04T03:00:00Z,26.5255,-82.0032,0.65,1111122 
SCCF RECON,ioos:station:SCCF:13:1,2011-02-04T04:00:00Z,26.5255,-82.0032,8.35,1111122 
SCCF RECON,ioos:station:SCCF:13:1,2011-02-04T05:00:00Z,26.5255,-82.0032,3.97,1111122 
SCCF RECON,ioos:station:SCCF:13:1,2011-02-04T06:00:00Z,26.5255,-82.0032,22.49,1111122 
SCCF RECON,ioos:station:SCCF:13:1,2011-02-04T07:00:00Z,26.5255,-82.0032,22.49,1111122 
SCCF RECON,ioos:station:SCCF:13:1,2011-02-04T08:00:00Z,26.5255,-82.0032,10.65,1111122 
SCCF RECON,ioos:station:SCCF:13:1,2011-02-04T09:00:00Z,26.5255,-82.0032,4.99,1111122 
SCCF RECON,ioos:station:SCCF:13:1,2011-02-04T10:00:00Z,26.5255,-82.0032,14.83,1111122 
SCCF RECON,ioos:station:SCCF:13:1,2011-02-04T11:00:00Z,26.5255,-82.0032,0.66,1111122 
SCCF RECON,ioos:station:SCCF:13:1,2011-02-04T12:00:00Z,26.5255,-82.0032,0.69,1111122 
SCCF RECON,ioos:station:SCCF:13:1,2011-02-04T13:00:00Z,26.5255,-82.0032,1.0,1111122 
SCCF RECON,ioos:station:SCCF:13:1,2011-02-04T14:00:00Z,26.5255,-82.0032,0.99,1111122 
SCCF RECON,ioos:station:SCCF:13:1,2011-02-04T15:00:00Z,26.5255,-82.0032,1.04,1111122 
SCCF RECON,ioos:station:SCCF:13:1,2011-02-04T16:00:00Z,26.5255,-82.0032,1.45,1111122 
SCCF RECON,ioos:station:SCCF:13:1,2011-02-04T17:00:00Z,26.5255,-82.0032,0.73,1111122 
SCCF RECON,ioos:station:SCCF:13:1,2011-02-04T18:00:00Z,26.5255,-82.0032,0.95,1111122 
SCCF RECON,ioos:station:SCCF:13:1,2011-02-04T19:00:00Z,26.5255,-82.0032,2.06,1111122 
SCCF RECON,ioos:station:SCCF:13:1,2011-02-04T20:00:00Z,26.5255,-82.0032,5.47,1111122 
SCCF RECON,ioos:station:SCCF:13:1,2011-02-04T21:00:00Z,26.5255,-82.0032,2.97,1111122 
SCCF RECON,ioos:station:SCCF:13:1,2011-02-04T22:00:00Z,26.5255,-82.0032,4.02,1111122 
SCCF RECON,ioos:station:SCCF:13:1,2011-02-04T23:00:00Z,26.5255,-82.0032,0.96,1111122 
SCCF RECON,ioos:station:SCCF:13:1,2011-02-05T00:00:00Z,26.5255,-82.0032,0.87,1111122 
SCCF RECON,ioos:station:SCCF:13:1,2011-02-05T01:00:00Z,26.5255,-82.0032,0.82,1111122 
SCCF RECON,ioos:station:SCCF:13:1,2011-02-05T02:00:00Z,26.5255,-82.0032,0.9,1111122 
SCCF RECON,ioos:station:SCCF:13:1,2011-02-05T03:00:00Z,26.5255,-82.0032,0.98,1111122 
SCCF RECON,ioos:station:SCCF:13:1,2011-02-05T04:00:00Z,26.5255,-82.0032,0.7,1111122 
SCCF RECON,ioos:station:SCCF:13:1,2011-02-05T05:00:00Z,26.5255,-82.0032,1.19,1111122 
SCCF RECON,ioos:station:SCCF:13:1,2011-02-05T06:00:00Z,26.5255,-82.0032,2.38,1111122 
SCCF RECON,ioos:station:SCCF:13:1,2011-02-05T07:00:00Z,26.5255,-82.0032,5.09,1111122 
SCCF RECON,ioos:station:SCCF:13:1,2011-02-05T08:00:00Z,26.5255,-82.0032,11.34,1111122 
SCCF RECON,ioos:station:SCCF:13:1,2011-02-05T09:00:00Z,26.5255,-82.0032,5.76,1111122 
SCCF RECON,ioos:station:SCCF:13:1,2011-02-05T10:00:00Z,26.5255,-82.0032,3.62,1111122 
SCCF RECON,ioos:station:SCCF:13:1,2011-02-05T11:00:00Z,26.5255,-82.0032,9.62,1111122 
SCCF RECON,ioos:station:SCCF:13:1,2011-02-05T12:00:00Z,26.5255,-82.0032,0.69,1111122 
SCCF RECON,ioos:station:SCCF:13:1,2011-02-05T13:00:00Z,26.5255,-82.0032,0.7,1111122 
SCCF RECON,ioos:station:SCCF:13:1,2011-02-05T14:00:00Z,26.5255,-82.0032,0.72,1111122 
SCCF RECON,ioos:station:SCCF:13:1,2011-02-05T15:00:00Z,26.5255,-82.0032,0.74,1111122 
SCCF RECON,ioos:station:SCCF:13:1,2011-02-05T16:00:00Z,26.5255,-82.0032,0.78,1111122 
SCCF RECON,ioos:station:SCCF:13:1,2011-02-05T17:00:00Z,26.5255,-82.0032,1.25,1111122 
SCCF RECON,ioos:station:SCCF:13:1,2011-02-05T18:00:00Z,26.5255,-82.0032,1.73,1111122 
SCCF RECON,ioos:station:SCCF:13:1,2011-02-05T19:00:00Z,26.5255,-82.0032,4.16,1111122 
SCCF RECON,ioos:station:SCCF:13:1,2011-02-05T20:00:00Z,26.5255,-82.0032,4.18,1111122 
SCCF RECON,ioos:station:SCCF:13:1,2011-02-05T21:00:00Z,26.5255,-82.0032,6.72,1111122 
SCCF RECON,ioos:station:SCCF:13:1,2011-02-05T22:00:00Z,26.5255,-82.0032,7.55,1111122 
SCCF RECON,ioos:station:SCCF:13:1,2011-02-05T23:00:00Z,26.5255,-82.0032,1.19,1111122 
SCCF RECON,ioos:station:SCCF:13:1,2011-02-06T00:00:00Z,26.5255,-82.0032,0.93,1111122 
SCCF RECON,ioos:station:SCCF:13:1,2011-02-06T01:00:00Z,26.5255,-82.0032,0.83,1111122 
SCCF RECON,ioos:station:SCCF:13:1,2011-02-06T02:00:00Z,26.5255,-82.0032,0.89,1111122 
SCCF RECON,ioos:station:SCCF:13:1,2011-02-06T03:00:00Z,26.5255,-82.0032,0.92,1111122 
SCCF RECON,ioos:station:SCCF:13:1,2011-02-06T04:00:00Z,26.5255,-82.0032,0.99,1111122 
SCCF RECON,ioos:station:SCCF:13:1,2011-02-06T05:00:00Z,26.5255,-82.0032,0.79,1111122 
SCCF RECON,ioos:station:SCCF:13:1,2011-02-06T06:00:00Z,26.5255,-82.0032,0.89,1111122 
SCCF RECON,ioos:station:SCCF:13:1,2011-02-06T07:00:00Z,26.5255,-82.0032,1.7,1111122 
SCCF RECON,ioos:station:SCCF:13:1,2011-02-06T08:00:00Z,26.5255,-82.0032,2.51,1111122 
SCCF RECON,ioos:station:SCCF:13:1,2011-02-06T09:00:00Z,26.5255,-82.0032,3.16,1111122 
SCCF RECON,ioos:station:SCCF:13:1,2011-02-06T10:00:00Z,26.5255,-82.0032,1.99,1111122 
SCCF RECON,ioos:station:SCCF:13:1,2011-02-06T11:00:00Z,26.5255,-82.0032,0.82,1111122 
SCCF RECON,ioos:station:SCCF:13:1,2011-02-06T12:00:00Z,26.5255,-82.0032,0.7,1111122 
SCCF RECON,ioos:station:SCCF:13:1,2011-02-06T13:00:00Z,26.5255,-82.0032,0.72,1111122 
SCCF RECON,ioos:station:SCCF:13:1,2011-02-06T14:00:00Z,26.5255,-82.0032,0.81,1111122 
SCCF RECON,ioos:station:SCCF:13:1,2011-02-06T15:00:00Z,26.5255,-82.0032,0.85,1111122 
SCCF RECON,ioos:station:SCCF:13:1,2011-02-06T16:00:00Z,26.5255,-82.0032,0.89,1111122 
SCCF RECON,ioos:station:SCCF:13:1,2011-02-06T17:00:00Z,26.5255,-82.0032,0.94,1111122 
SCCF RECON,ioos:station:SCCF:13:1,2011-02-06T18:00:00Z,26.5255,-82.0032,0.85,1111122 
SCCF RECON,ioos:station:SCCF:13:1,2011-02-06T19:00:00Z,26.5255,-82.0032,1.0,1111122 
SCCF RECON,ioos:station:SCCF:13:1,2011-02-06T20:00:00Z,26.5255,-82.0032,13.0,1111122 
SCCF RECON,ioos:station:SCCF:13:1,2011-02-06T21:00:00Z,26.5255,-82.0032,37.58,1111122 
SCCF RECON,ioos:station:SCCF:13:1,2011-02-06T22:00:00Z,26.5255,-82.0032,29.62,1111122 
SCCF RECON,ioos:station:SCCF:13:1,2011-02-06T23:00:00Z,26.5255,-82.0032,34.6,1111122 
SCCF RECON,ioos:station:SCCF:13:1,2011-02-07T00:00:00Z,26.5255,-82.0032,38.52,1111122 
SCCF RECON,ioos:station:SCCF:13:1,2011-02-07T01:00:00Z,26.5255,-82.0032,27.1,1111122 
SCCF RECON,ioos:station:SCCF:13:1,2011-02-07T02:00:00Z,26.5255,-82.0032,31.58,1111122 
SCCF RECON,ioos:station:SCCF:13:1,2011-02-07T03:00:00Z,26.5255,-82.0032,23.36,1111122 
SCCF RECON,ioos:station:SCCF:13:1,2011-02-07T04:00:00Z,26.5255,-82.0032,26.52,1111122 
SCCF RECON,ioos:station:SCCF:13:1,2011-02-07T05:00:00Z,26.5255,-82.0032,36.91,1111122 
SCCF RECON,ioos:station:SCCF:13:1,2011-02-07T06:00:00Z,26.5255,-82.0032,1.05,1111122 
SCCF RECON,ioos:station:SCCF:13:1,2011-02-07T07:00:00Z,26.5255,-82.0032,2.04,1111122 
SCCF RECON,ioos:station:SCCF:13:1,2011-02-07T08:00:00Z,26.5255,-82.0032,9.03,1111122 
SCCF RECON,ioos:station:SCCF:13:1,2011-02-07T09:00:00Z,26.5255,-82.0032,3.81,1111122 
SCCF RECON,ioos:station:SCCF:13:1,2011-02-07T10:00:00Z,26.5255,-82.0032,21.73,1111122 
SCCF RECON,ioos:station:SCCF:13:1,2011-02-07T11:00:00Z,26.5255,-82.0032,21.28,1111122 
SCCF RECON,ioos:station:SCCF:13:1,2011-02-07T12:00:00Z,26.5255,-82.0032,22.7,1111122 
SCCF RECON,ioos:station:SCCF:13:1,2011-02-07T13:00:00Z,26.5255,-82.0032,12.38,1111122 
SCCF RECON,ioos:station:SCCF:13:1,2011-02-07T14:00:00Z,26.5255,-82.0032,0.98,1111122 
SCCF RECON,ioos:station:SCCF:13:1,2011-02-07T15:00:00Z,26.5255,-82.0032,0.95,1111122 
SCCF RECON,ioos:station:SCCF:13:1,2011-02-07T16:00:00Z,26.5255,-82.0032,1.12,1111122 
SCCF RECON,ioos:station:SCCF:13:1,2011-02-07T17:00:00Z,26.5255,-82.0032,1.27,1111122 
SCCF RECON,ioos:station:SCCF:13:1,2011-02-07T18:00:00Z,26.5255,-82.0032,10.77,1111122 
SCCF RECON,ioos:station:SCCF:13:1,2011-02-07T19:00:00Z,26.5255,-82.0032,6.24,1111122 
SCCF RECON,ioos:station:SCCF:13:1,2011-02-07T20:00:00Z,26.5255,-82.0032,25.0,1111122 
SCCF RECON,ioos:station:SCCF:13:1,2011-02-07T21:00:00Z,26.5255,-82.0032,25.58,1111122 
SCCF RECON,ioos:station:SCCF:13:1,2011-02-07T22:00:00Z,26.5255,-82.0032,28.66,1111122 
SCCF RECON,ioos:station:SCCF:13:1,2011-02-07T23:00:00Z,26.5255,-82.0032,18.42,1111122 
SCCF RECON,ioos:station:SCCF:13:1,2011-02-08T00:00:00Z,26.5255,-82.0032,7.88,1111122 
SCCF RECON,ioos:station:SCCF:13:1,2011-02-08T01:00:00Z,26.5255,-82.0032,1.01,1111122 
SCCF RECON,ioos:station:SCCF:13:1,2011-02-08T02:00:00Z,26.5255,-82.0032,0.92,1111122 
SCCF RECON,ioos:station:SCCF:13:1,2011-02-08T03:00:00Z,26.5255,-82.0032,0.9,1111122 
SCCF RECON,ioos:station:SCCF:13:1,2011-02-08T04:00:00Z,26.5255,-82.0032,0.95,1111122 
SCCF RECON,ioos:station:SCCF:13:1,2011-02-08T05:00:00Z,26.5255,-82.0032,0.99,1111122 
SCCF RECON,ioos:station:SCCF:13:1,2011-02-08T06:00:00Z,26.5255,-82.0032,1.03,1111122 
SCCF RECON,ioos:station:SCCF:13:1,2011-02-08T07:00:00Z,26.5255,-82.0032,1.01,1111122 
SCCF RECON,ioos:station:SCCF:13:1,2011-02-08T08:00:00Z,26.5255,-82.0032,0.86,1111122 
SCCF RECON,ioos:station:SCCF:13:1,2011-02-08T09:00:00Z,26.5255,-82.0032,1.01,1111122 
SCCF RECON,ioos:station:SCCF:13:1,2011-02-08T10:00:00Z,26.5255,-82.0032,0.96,1111122 
SCCF RECON,ioos:station:SCCF:13:1,2011-02-08T11:00:00Z,26.5255,-82.0032,0.93,1111122 
SCCF RECON,ioos:station:SCCF:13:1,2011-02-08T12:00:00Z,26.5255,-82.0032,1.0,1111122 
SCCF RECON,ioos:station:SCCF:13:1,2011-02-08T13:00:00Z,26.5255,-82.0032,0.94,1111122 
SCCF RECON,ioos:station:SCCF:13:1,2011-02-08T14:00:00Z,26.5255,-82.0032,0.96,1111122 
SCCF RECON,ioos:station:SCCF:13:1,2011-02-08T15:00:00Z,26.5255,-82.0032,0.98,1111122 
SCCF RECON,ioos:station:SCCF:13:1,2011-02-08T16:00:00Z,26.5255,-82.0032,1.0,1111122 
SCCF RECON,ioos:station:SCCF:13:1,2011-02-08T17:00:00Z,26.5255,-82.0032,0.98,1111122 
SCCF RECON,ioos:station:SCCF:13:1,2011-02-08T18:00:00Z,26.5255,-82.0032,0.92,1111122 
SCCF RECON,ioos:station:SCCF:13:1,2011-02-08T19:00:00Z,26.5255,-82.0032,1.72,1111122 
SCCF RECON,ioos:station:SCCF:13:1,2011-02-08T20:00:00Z,26.5255,-82.0032,3.0,1111122 
SCCF RECON,ioos:station:SCCF:13:1,2011-02-08T21:00:00Z,26.5255,-82.0032,3.26,1111122 
SCCF RECON,ioos:station:SCCF:13:1,2011-02-08T22:00:00Z,26.5255,-82.0032,4.82,1111122 
SCCF RECON,ioos:station:SCCF:13:1,2011-02-08T23:00:00Z,26.5255,-82.0032,10.25,1111122 
SCCF RECON,ioos:station:SCCF:13:1,2011-02-09T00:00:00Z,26.5255,-82.0032,2.83,1111122 
SCCF RECON,ioos:station:SCCF:13:1,2011-02-09T01:00:00Z,26.5255,-82.0032,1.04,1111122 
SCCF RECON,ioos:station:SCCF:13:1,2011-02-09T02:00:00Z,26.5255,-82.0032,0.91,1111122 
SCCF RECON,ioos:station:SCCF:13:1,2011-02-09T03:00:00Z,26.5255,-82.0032,0.95,1111122 
SCCF RECON,ioos:station:SCCF:13:1,2011-02-09T04:00:00Z,26.5255,-82.0032,1.05,1111122 
SCCF RECON,ioos:station:SCCF:13:1,2011-02-09T05:00:00Z,26.5255,-82.0032,1.2,1111122 
SCCF RECON,ioos:station:SCCF:13:1,2011-02-09T06:00:00Z,26.5255,-82.0032,1.29,1111122 
SCCF RECON,ioos:station:SCCF:13:1,2011-02-09T07:00:00Z,26.5255,-82.0032,1.48,1111122 
SCCF RECON,ioos:station:SCCF:13:1,2011-02-09T08:00:00Z,26.5255,-82.0032,1.48,1111122 
SCCF RECON,ioos:station:SCCF:13:1,2011-02-09T09:00:00Z,26.5255,-82.0032,1.05,1111122 
SCCF RECON,ioos:station:SCCF:13:1,2011-02-09T10:00:00Z,26.5255,-82.0032,0.78,1111122 
SCCF RECON,ioos:station:SCCF:13:1,2011-02-09T11:00:00Z,26.5255,-82.0032,0.82,1111122 
SCCF RECON,ioos:station:SCCF:13:1,2011-02-09T12:00:00Z,26.5255,-82.0032,0.84,1111122 
SCCF RECON,ioos:station:SCCF:13:1,2011-02-09T13:00:00Z,26.5255,-82.0032,0.93,1111122 
SCCF RECON,ioos:station:SCCF:13:1,2011-02-09T14:00:00Z,26.5255,-82.0032,0.99,1111122 
SCCF RECON,ioos:station:SCCF:13:1,2011-02-09T15:00:00Z,26.5255,-82.0032,1.09,1111122 
SCCF RECON,ioos:station:SCCF:13:1,2011-02-09T16:00:00Z,26.5255,-82.0032,1.22,1111122 
SCCF RECON,ioos:station:SCCF:13:1,2011-02-09T17:00:00Z,26.5255,-82.0032,1.12,1111122 
SCCF RECON,ioos:station:SCCF:13:1,2011-02-09T18:00:00Z,26.5255,-82.0032,1.95,1111122 
SCCF RECON,ioos:station:SCCF:13:1,2011-02-09T19:00:00Z,26.5255,-82.0032,2.74,1111122 
SCCF RECON,ioos:station:SCCF:13:1,2011-02-09T20:00:00Z,26.5255,-82.0032,2.13,1111122 
SCCF RECON,ioos:station:SCCF:13:1,2011-02-09T21:00:00Z,26.5255,-82.0032,3.06,1111122 
SCCF RECON,ioos:station:SCCF:13:1,2011-02-09T22:00:00Z,26.5255,-82.0032,11.75,1111122 
SCCF RECON,ioos:station:SCCF:13:1,2011-02-09T23:00:00Z,26.5255,-82.0032,18.57,1111122 
SCCF RECON,ioos:station:SCCF:13:1,2011-02-10T00:00:00Z,26.5255,-82.0032,26.38,1111122 
SCCF RECON,ioos:station:SCCF:13:1,2011-02-10T01:00:00Z,26.5255,-82.0032,5.47,1111122 
SCCF RECON,ioos:station:SCCF:13:1,2011-02-10T02:00:00Z,26.5255,-82.0032,1.19,1111122 
SCCF RECON,ioos:station:SCCF:13:1,2011-02-10T03:00:00Z,26.5255,-82.0032,0.89,1111122 
SCCF RECON,ioos:station:SCCF:13:1,2011-02-10T04:00:00Z,26.5255,-82.0032,0.81,1111122 
SCCF RECON,ioos:station:SCCF:13:1,2011-02-10T05:00:00Z,26.5255,-82.0032,0.89,1111122 
SCCF RECON,ioos:station:SCCF:13:1,2011-02-10T06:00:00Z,26.5255,-82.0032,1.19,1111122 
SCCF RECON,ioos:station:SCCF:13:1,2011-02-10T07:00:00Z,26.5255,-82.0032,6.13,1111122 
SCCF RECON,ioos:station:SCCF:13:1,2011-02-10T08:00:00Z,26.5255,-82.0032,1.08,1111122 
SCCF RECON,ioos:station:SCCF:13:1,2011-02-10T09:00:00Z,26.5255,-82.0032,0.85,1111122 
SCCF RECON,ioos:station:SCCF:13:1,2011-02-10T10:00:00Z,26.5255,-82.0032,1.03,1111122 
SCCF RECON,ioos:station:SCCF:13:1,2011-02-10T11:00:00Z,26.5255,-82.0032,0.98,1111122 
SCCF RECON,ioos:station:SCCF:13:1,2011-02-10T12:00:00Z,26.5255,-82.0032,1.01,1111122 
SCCF RECON,ioos:station:SCCF:13:1,2011-02-10T13:00:00Z,26.5255,-82.0032,0.92,1111122 
SCCF RECON,ioos:station:SCCF:13:1,2011-02-10T14:00:00Z,26.5255,-82.0032,0.97,1111122 
SCCF RECON,ioos:station:SCCF:13:1,2011-02-10T15:00:00Z,26.5255,-82.0032,0.98,1111122 
SCCF RECON,ioos:station:SCCF:13:1,2011-02-10T16:00:00Z,26.5255,-82.0032,0.92,1111122 
SCCF RECON,ioos:station:SCCF:13:1,2011-02-10T17:00:00Z,26.5255,-82.0032,1.28,1111122 
SCCF RECON,ioos:station:SCCF:13:1,2011-02-10T18:00:00Z,26.5255,-82.0032,1.14,1111122 
SCCF RECON,ioos:station:SCCF:13:1,2011-02-10T19:00:00Z,26.5255,-82.0032,1.18,1111122 
SCCF RECON,ioos:station:SCCF:13:1,2011-02-10T20:00:00Z,26.5255,-82.0032,5.75,1111122 
SCCF RECON,ioos:station:SCCF:13:1,2011-02-10T21:00:00Z,26.5255,-82.0032,14.17,1111122 
SCCF RECON,ioos:station:SCCF:13:1,2011-02-10T22:00:00Z,26.5255,-82.0032,7.96,1111122 
SCCF RECON,ioos:station:SCCF:13:1,2011-02-10T23:00:00Z,26.5255,-82.0032,5.89,1111122 
SCCF RECON,ioos:station:SCCF:13:1,2011-02-11T00:00:00Z,26.5255,-82.0032,1.4,1111122 
SCCF RECON,ioos:station:SCCF:13:1,2011-02-11T01:00:00Z,26.5255,-82.0032,1.12,1111122 
SCCF RECON,ioos:station:SCCF:13:1,2011-02-11T02:00:00Z,26.5255,-82.0032,0.93,1111122 
SCCF RECON,ioos:station:SCCF:13:1,2011-02-11T03:00:00Z,26.5255,-82.0032,0.85,1111122 
SCCF RECON,ioos:station:SCCF:13:1,2011-02-11T04:00:00Z,26.5255,-82.0032,0.96,1111122 
SCCF RECON,ioos:station:SCCF:13:1,2011-02-11T05:00:00Z,26.5255,-82.0032,1.04,1111122 
SCCF RECON,ioos:station:SCCF:13:1,2011-02-11T06:00:00Z,26.5255,-82.0032,1.08,1111122 
SCCF RECON,ioos:station:SCCF:13:1,2011-02-11T07:00:00Z,26.5255,-82.0032,1.1,1111122 
SCCF RECON,ioos:station:SCCF:13:1,2011-02-11T08:00:00Z,26.5255,-82.0032,1.11,1111122 
SCCF RECON,ioos:station:SCCF:13:1,2011-02-11T09:00:00Z,26.5255,-82.0032,1.17,1111122 
SCCF RECON,ioos:station:SCCF:13:1,2011-02-11T10:00:00Z,26.5255,-82.0032,1.28,1111122 
SCCF RECON,ioos:station:SCCF:13:1,2011-02-11T11:00:00Z,26.5255,-82.0032,1.29,1111122 
SCCF RECON,ioos:station:SCCF:13:1,2011-02-11T12:00:00Z,26.5255,-82.0032,0.9,1111122 
SCCF RECON,ioos:station:SCCF:13:1,2011-02-11T13:00:00Z,26.5255,-82.0032,0.77,1111122 
SCCF RECON,ioos:station:SCCF:13:1,2011-02-11T14:00:00Z,26.5255,-82.0032,0.77,1111122 
SCCF RECON,ioos:station:SCCF:13:1,2011-02-11T15:00:00Z,26.5255,-82.0032,0.75,1111122 
SCCF RECON,ioos:station:SCCF:13:1,2011-02-11T16:00:00Z,26.5255,-82.0032,0.73,1111122 
SCCF RECON,ioos:station:SCCF:13:1,2011-02-11T17:00:00Z,26.5255,-82.0032,0.89,1111122 
SCCF RECON,ioos:station:SCCF:13:1,2011-02-11T18:00:00Z,26.5255,-82.0032,0.97,1111122 
SCCF RECON,ioos:station:SCCF:13:1,2011-02-11T19:00:00Z,26.5255,-82.0032,0.94,1111122 
SCCF RECON,ioos:station:SCCF:13:1,2011-02-11T20:00:00Z,26.5255,-82.0032,0.74,1111122 
SCCF RECON,ioos:station:SCCF:13:1,2011-02-11T21:00:00Z,26.5255,-82.0032,3.03,1111122 
SCCF RECON,ioos:station:SCCF:13:1,2011-02-11T22:00:00Z,26.5255,-82.0032,2.38,1111122 
SCCF RECON,ioos:station:SCCF:13:1,2011-02-11T23:00:00Z,26.5255,-82.0032,2.29,1111122 
SCCF RECON,ioos:station:SCCF:13:1,2011-02-12T00:00:00Z,26.5255,-82.0032,4.11,1111122 
SCCF RECON,ioos:station:SCCF:13:1,2011-02-12T01:00:00Z,26.5255,-82.0032,1.97,1111122 
SCCF RECON,ioos:station:SCCF:13:1,2011-02-12T02:00:00Z,26.5255,-82.0032,1.09,1111122 
SCCF RECON,ioos:station:SCCF:13:1,2011-02-12T03:00:00Z,26.5255,-82.0032,0.94,1111122 
SCCF RECON,ioos:station:SCCF:13:1,2011-02-12T04:00:00Z,26.5255,-82.0032,0.9,1111122 
SCCF RECON,ioos:station:SCCF:13:1,2011-02-12T05:00:00Z,26.5255,-82.0032,1.05,1111122 
SCCF RECON,ioos:station:SCCF:13:1,2011-02-12T06:00:00Z,26.5255,-82.0032,1.05,1111122 
SCCF RECON,ioos:station:SCCF:13:1,2011-02-12T07:00:00Z,26.5255,-82.0032,1.25,1111122 
SCCF RECON,ioos:station:SCCF:13:1,2011-02-12T08:00:00Z,26.5255,-82.0032,1.39,1111122 
SCCF RECON,ioos:station:SCCF:13:1,2011-02-12T09:00:00Z,26.5255,-82.0032,1.47,1111122 
SCCF RECON,ioos:station:SCCF:13:1,2011-02-12T10:00:00Z,26.5255,-82.0032,1.47,1111122 
SCCF RECON,ioos:station:SCCF:13:1,2011-02-12T11:00:00Z,26.5255,-82.0032,1.45,1111122 
SCCF RECON,ioos:station:SCCF:13:1,2011-02-12T12:00:00Z,26.5255,-82.0032,1.43,1111122 
SCCF RECON,ioos:station:SCCF:13:1,2011-02-12T13:00:00Z,26.5255,-82.0032,1.39,1111122 